Weather reports worldwide

Advertisment
Stonyhurst, United Kingdom (99060): temperature & dewpoint: 09.10.2019 19:00:00 - 15.10.2019 19:00:00 (BST)Stonyhurst, United Kingdom (99060): precipitation: 09.10.2019 19:00:00 - 15.10.2019 19:00:00 (BST)
Date & Time tt [°C] td [°C] rr [mm]
15.10.2019 19:00:00 - - -
15.10.2019 18:00:00 10,2 8,4 0,0
15.10.2019 17:00:00 10,7 8,5 0,0
15.10.2019 16:00:00 10,5 8,9 0,0
15.10.2019 15:00:00 10,7 9,0 0,0
15.10.2019 14:00:00 10,8 9,3 0,0
15.10.2019 13:00:00 11,3 9,4 0,0
15.10.2019 12:00:00 11,0 8,8 0,0
15.10.2019 11:00:00 10,5 9,4 0,0
15.10.2019 10:00:00 9,2 9,0 0,0
15.10.2019 09:00:00 8,3 8,1 0,0
15.10.2019 08:00:00 7,4 7,2 0,0
15.10.2019 07:00:00 7,8 7,4 0,0
15.10.2019 06:00:00 8,7 8,3 0,0
15.10.2019 05:00:00 8,5 8,1 0,0
15.10.2019 04:00:00 8,8 8,3 0,2
15.10.2019 03:00:00 8,5 8,2 0,2
15.10.2019 02:00:00 8,6 8,2 0,6
15.10.2019 01:00:00 8,8 8,2 2,2
15.10.2019 00:00:00 8,9 8,3 0,8
14.10.2019 23:00:00 9,0 8,2 0,2
14.10.2019 22:00:00 9,2 8,0 0,2
14.10.2019 21:00:00 9,9 8,5 0,2
14.10.2019 20:00:00 10,3 9,3 0,4
14.10.2019 19:00:00 10,7 9,2 0,0
14.10.2019 18:00:00 11,0 9,2 0,0
14.10.2019 17:00:00 11,4 9,7 0,0
14.10.2019 16:00:00 11,9 9,6 0,0
14.10.2019 15:00:00 12,0 9,5 0,0
14.10.2019 14:00:00 12,3 9,9 0,0
14.10.2019 13:00:00 12,1 10,3 0,0
14.10.2019 12:00:00 11,0 9,6 0,0
14.10.2019 11:00:00 9,9 8,9 0,0
14.10.2019 10:00:00 9,4 9,1 0,0
14.10.2019 09:00:00 7,5 7,3 0,0
14.10.2019 08:00:00 7,0 6,8 0,0
14.10.2019 07:00:00 7,3 7,1 0,0
14.10.2019 06:00:00 7,3 7,1 0,0
14.10.2019 05:00:00 7,3 7,0 0,0
14.10.2019 04:00:00 7,1 6,8 0,0
14.10.2019 03:00:00 7,4 6,9 0,0
14.10.2019 02:00:00 8,3 7,4 0,0
14.10.2019 01:00:00 8,7 8,1 0,0
14.10.2019 00:00:00 8,8 8,2 0,0
13.10.2019 23:00:00 9,4 8,7 0,0
13.10.2019 22:00:00 8,9 7,7 0,0
13.10.2019 21:00:00 9,5 7,9 0,0
13.10.2019 20:00:00 9,8 8,2 0,0
13.10.2019 19:00:00 10,5 9,6 0,2
13.10.2019 18:00:00 10,8 10,3 0,0
13.10.2019 17:00:00 10,9 10,5 3,6
13.10.2019 16:00:00 10,9 10,3 1,2
13.10.2019 15:00:00 11,1 10,1 1,8
13.10.2019 14:00:00 11,3 9,5 0,0
13.10.2019 13:00:00 11,2 9,7 0,0
13.10.2019 12:00:00 11,2 10,5 0,4
13.10.2019 11:00:00 10,6 10,2 0,2
13.10.2019 10:00:00 10,3 9,9 0,4
13.10.2019 09:00:00 10,2 9,7 0,2
13.10.2019 08:00:00 10,0 9,6 0,0
13.10.2019 07:00:00 9,9 9,5 0,0
13.10.2019 06:00:00 9,6 9,3 0,0
13.10.2019 05:00:00 9,7 9,4 0,0
13.10.2019 04:00:00 9,6 9,3 0,0
13.10.2019 03:00:00 9,2 8,7 0,0
13.10.2019 02:00:00 9,9 9,4 0,0
13.10.2019 01:00:00 9,7 9,2 0,0
13.10.2019 00:00:00 9,8 9,3 0,0
12.10.2019 23:00:00 8,9 8,1 0,0
12.10.2019 22:00:00 9,0 7,9 0,0
12.10.2019 21:00:00 10,0 8,2 0,0
12.10.2019 20:00:00 9,8 8,4 0,0
12.10.2019 19:00:00 10,3 8,4 0,0
12.10.2019 18:00:00 11,9 8,6 0,0
12.10.2019 17:00:00 13,0 8,3 0,0
12.10.2019 16:00:00 13,8 9,5 0,0
12.10.2019 15:00:00 13,3 8,2 0,0
12.10.2019 14:00:00 12,4 8,0 0,0
12.10.2019 13:00:00 13,0 8,7 0,0
12.10.2019 12:00:00 12,5 9,3 0,0
12.10.2019 11:00:00 12,4 10,2 0,0
12.10.2019 10:00:00 10,3 10,1 0,2
12.10.2019 09:00:00 9,0 8,7 0,0
12.10.2019 08:00:00 8,4 8,2 0,0
12.10.2019 07:00:00 8,2 7,9 0,0
12.10.2019 06:00:00 7,9 7,3 0,0
12.10.2019 05:00:00 8,7 7,9 0,0
12.10.2019 04:00:00 8,9 7,9 0,0
12.10.2019 03:00:00 9,1 8,1 0,8
12.10.2019 02:00:00 9,6 8,6 0,2
12.10.2019 01:00:00 9,3 8,3 0,0
12.10.2019 00:00:00 9,9 9,2 3,2
11.10.2019 23:00:00 10,0 9,3 0,8
11.10.2019 22:00:00 10,3 9,6 0,2
11.10.2019 21:00:00 10,6 9,7 9,4
11.10.2019 20:00:00 10,8 10,1 1,0
11.10.2019 19:00:00 11,5 9,7 0,2
11.10.2019 18:00:00 12,2 9,3 0,0
11.10.2019 17:00:00 12,5 8,7 0,0
11.10.2019 16:00:00 13,1 8,2 0,0
11.10.2019 15:00:00 13,8 8,9 0,0
11.10.2019 14:00:00 13,3 10,2 0,0
11.10.2019 13:00:00 11,7 11,3 0,0
11.10.2019 12:00:00 11,1 10,8 0,2
11.10.2019 11:00:00 10,6 10,4 2,2
11.10.2019 10:00:00 11,2 10,9 3,0
11.10.2019 09:00:00 10,9 10,6 1,6
11.10.2019 08:00:00 12,0 11,8 5,8
11.10.2019 07:00:00 12,0 11,8 1,2
11.10.2019 06:00:00 12,0 11,4 1,8
11.10.2019 05:00:00 12,8 10,9 0,0
11.10.2019 04:00:00 13,3 10,8 0,0
11.10.2019 03:00:00 13,4 11,2 0,0
11.10.2019 02:00:00 13,1 11,2 0,0
11.10.2019 01:00:00 12,7 10,6 0,0
11.10.2019 00:00:00 13,2 11,5 0,0
10.10.2019 23:00:00 13,5 12,5 0,0
10.10.2019 22:00:00 13,2 12,9 6,8
10.10.2019 21:00:00 12,6 12,1 4,8
10.10.2019 20:00:00 13,0 11,5 0,2
10.10.2019 19:00:00 12,4 11,0 0,0
10.10.2019 18:00:00 12,7 11,8 0,0
10.10.2019 17:00:00 12,4 11,8 0,4
10.10.2019 16:00:00 11,5 11,1 0,8
10.10.2019 15:00:00 11,0 10,5 0,4
10.10.2019 14:00:00 11,6 10,1 0,2
10.10.2019 13:00:00 12,5 8,8 0,0
10.10.2019 12:00:00 12,3 10,3 0,4
10.10.2019 11:00:00 12,5 8,5 0,0
10.10.2019 10:00:00 11,7 8,4 0,0
10.10.2019 09:00:00 10,8 7,9 0,0
10.10.2019 08:00:00 10,3 7,4 0,0
10.10.2019 07:00:00 10,1 8,0 0,0
10.10.2019 06:00:00 9,8 7,9 0,0
10.10.2019 05:00:00 9,8 8,3 0,6
10.10.2019 04:00:00 10,0 7,7 0,0
10.10.2019 03:00:00 10,1 8,1 0,0
10.10.2019 02:00:00 9,6 8,0 0,0
10.10.2019 01:00:00 9,2 8,3 0,8
10.10.2019 00:00:00 10,0 8,4 0,0
09.10.2019 23:00:00 9,4 8,3 0,4
09.10.2019 22:00:00 9,2 8,2 0,0
09.10.2019 21:00:00 9,3 8,2 2,8
09.10.2019 20:00:00 8,7 7,6 2,0
09.10.2019 19:00:00 10,1 8,9 3,4

tt = temperature
td = dewpoint
rr = precipitation

Next stations